Location: Burla
(50.9568°N, 10.4983°E)
Time: 21:38:46
(UTC+00:00)

TIMED - Pass Details

Date: 18 January 2026
Orbit: 581 x 584 km, 74.1° (Epoch: 18 February)

Event Time Altitude Azimuth Distance (km) Brightness Sun altitude
Exits shadow 04:45:06 77° 306° (NW) 604 4.3 -22.5°
Drops below altitude 10° 04:49:19 10° 22° (NNE) 1,912 7.2 -21.9°
Sets 04:51:33 0° 24° (NNE) 2,817 8.2 -21.5°
